Location: Unspecified
(0.0000°N, 0.0000°E)
Time: 20:14:29
(UTC+00:00)

A-11 Canister half - Visible Passes

Search period start: 28 January 2015 00:00
Search period end: 07 February 2015 00:00
Orbit: 1526 x 1683 km, 47.3° (Epoch: 27 January)

Date Brightness Start Highest point End Pass type
(mag) Time Alt. Az. Time Alt. Az. Time Alt. Az.
28 Jan 11.0 03:09:47 10° S 03:15:55 20° SE 03:22:27 10° E visible
28 Jan 8.9 05:11:48 10° SW 05:21:17 81° NW 05:30:34 10° NE visible
29 Jan 11.0 02:48:34 10° S 02:54:18 18° SE 03:00:29 10° E visible
29 Jan 8.9 04:50:14 10° SW 04:59:45 86° NW 05:09:03 10° NE visible
30 Jan 11.0 02:27:24 10° S 02:32:40 17° SE 02:38:28 10° E visible
30 Jan 8.9 04:28:41 10° SW 04:38:14 88° SE 04:47:33 10° NE visible
31 Jan 11.1 02:06:17 10° SSE 02:11:02 15° SE 02:16:23 10° ESE visible
31 Jan 8.9 04:07:08 10° SW 04:16:42 83° SE 04:26:01 10° NE visible
01 Feb 11.1 01:45:14 10° SSE 01:49:24 14° SE 01:54:14 10° ESE visible
01 Feb 9.0 03:46:23 13° SW 03:55:09 78° SE 04:04:28 10° NE visible
02 Feb11.401:33:14ESE01:33:14ESE01:20:34Svisible
02 Feb 9.0 03:31:50 60° S 03:33:37 73° SE 03:42:55 10° NE visible
02 Feb 9.9 05:31:45 10° W 05:38:46 22° NW 05:45:17 10° N visible
03 Feb 9.4 03:14:16 54° ENE 03:14:16 54° ENE 03:21:21 10° NE visible
03 Feb 9.8 05:12:46 18° W 05:17:11 24° NW 05:24:03 10° N visible
04 Feb 10.2 02:55:53 29° ENE 02:55:53 29° ENE 02:59:47 10° NE visible
04 Feb 9.7 04:54:20 25° WNW 04:55:37 26° NW 05:02:46 10° N visible
05 Feb 10.9 02:37:02 15° NE 02:37:02 15° NE 02:38:12 10° NE visible
05 Feb 9.8 04:35:27 27° NNW 04:35:27 27° NNW 04:41:29 10° N visible
06 Feb 10.1 04:16:14 23° NNW 04:16:14 23° NNW 04:20:10 10° N visible
